This is the latest recevied weather packets stored in our database for station/object dl1wer-13. If no packets are shown the sender has not sent any weather packets the latest 1 day(s).
| Time | Temp. | Humidity | Pressure | Rain* | Wind** | Luminosity | Snow |
|---|---|---|---|---|---|---|---|
| 1777975821 | 19.44° C | 50% | 1034.3 hPa | 0 mm | 1.34 m/s, 284° | - | - |
| 1777975222 | 19.44° C | 47% | 1034.2 hPa | 0 mm | 1.34 m/s, 160° | - | - |
| 1777974621 | 20° C | 50% | 1034.4 hPa | 0 mm | 1.34 m/s, 213° | - | - |
| 1777974020 | 21.11° C | 54% | 1034.5 hPa | 0 mm | 0.89 m/s, 297° | - | - |
| 1777973422 | 20.56° C | 55% | 1034.3 hPa | 0 mm | 0.89 m/s, 232° | - | - |
| 1777972821 | 20° C | 56% | 1034.5 hPa | 0 mm | 0.89 m/s, 311° | - | - |
| 1777972222 | 20° C | 60% | 1034.7 hPa | 0 mm | 0.89 m/s, 222° | - | - |
| 1777971622 | 18.89° C | 60% | 1034.7 hPa | 0 mm | 0.89 m/s, 236° | - | - |
| 1777971021 | 18.33° C | 60% | 1034.8 hPa | 0 mm | 1.79 m/s, 275° | - | - |
| 1777970421 | 19.44° C | 60% | 1034.7 hPa | 0 mm | 0.89 m/s, 342° | - | - |
| 1777969822 | 18.89° C | 63% | 1034.9 hPa | 0 mm | 0.89 m/s, 291° | - | - |
| 1777969221 | 17.22° C | 67% | 1035.1 hPa | 0 mm | 0.89 m/s, 355° | - | - |
| 1777968622 | 16.67° C | 71% | 1035.3 hPa | 0 mm | 0.45 m/s, 138° | - | - |
| 1777968022 | 16.11° C | 71% | 1035.1 hPa | 0 mm | 0.45 m/s, 261° | - | - |
| 1777967421 | 16.11° C | 70% | 1035.1 hPa | 0 mm | 0.45 m/s, 305° | - | - |
| 1777966821 | 16.11° C | 70% | 1035.4 hPa | 0 mm | 0.89 m/s, 330° | - | - |
| 1777966221 | 15.56° C | 70% | 1035.2 hPa | 0 mm | 0.45 m/s, 300° | - | - |
| 1777965622 | 15.56° C | 70% | 1035.5 hPa | 0 mm | 0.89 m/s, 257° | - | - |
| 1777965021 | 15.56° C | 71% | 1035.7 hPa | 0 mm | 0.45 m/s, 277° | - | - |
| 1777964421 | 15.56° C | 73% | 1035.8 hPa | 0 mm | 0.45 m/s, 292° | - | - |
| 1777963821 | 14.44° C | 74% | 1036.1 hPa | 0 mm | 0.45 m/s, 305° | - | - |
| 1777963221 | 13.33° C | 75% | 1035.8 hPa | 0 mm | 0.45 m/s, 302° | - | - |
| 1777962622 | 13.89° C | 76% | 1036.3 hPa | 0 mm | 0.89 m/s, 333° | - | - |
| 1777962021 | 12.78° C | 80% | 1036 hPa | 0 mm | 0.89 m/s, 322° | - | - |
| 1777961421 | 11.67° C | 84% | 1035.9 hPa | 0 mm | 0.89 m/s, 323° | - | - |
* Rain latest hour (hover to see other rain measurements)
** Current wind speed in m/s (hover to see current wind gust speed)